TimeCDT,TemperatureF,Dew PointF,Humidity,Sea Level PressureIn,VisibilityMPH,Wind Direction,Wind SpeedMPH,Gust SpeedMPH,PrecipitationIn,Events,Conditions,WindDirDegrees,DateUTC
12:53 AM,64.0,61.0,90,29.70,10.0,Calm,Calm,-,N/A,,Partly Cloudy,0,2013-06-30 05:53:00
1:53 AM,63.0,60.1,90,29.70,10.0,Calm,Calm,-,N/A,,Clear,0,2013-06-30 06:53:00
2:53 AM,61.0,60.1,97,29.69,10.0,Calm,Calm,-,N/A,,Clear,0,2013-06-30 07:53:00
3:53 AM,61.0,60.1,97,29.69,10.0,WSW,3.5,-,N/A,,Clear,250,2013-06-30 08:53:00
4:53 AM,61.0,60.1,97,29.70,7.0,West,4.6,-,N/A,,Scattered Clouds,260,2013-06-30 09:53:00
5:02 AM,60.8,60.8,100,29.71,8.0,West,3.5,-,N/A,,Mostly Cloudy,260,2013-06-30 10:02:00
5:53 AM,64.0,62.1,93,29.72,8.0,Calm,Calm,-,N/A,,Overcast,0,2013-06-30 10:53:00
6:53 AM,64.9,63.0,93,29.74,5.0,North,4.6,-,N/A,,Overcast,360,2013-06-30 11:53:00
7:53 AM,66.0,64.0,93,29.76,6.0,NNE,4.6,-,N/A,,Overcast,20,2013-06-30 12:53:00
8:03 AM,66.2,64.4,94,29.77,6.0,North,3.5,-,N/A,,Overcast,10,2013-06-30 13:03:00
8:41 AM,68.0,64.4,88,29.78,9.0,Calm,Calm,-,N/A,,Overcast,0,2013-06-30 13:41:00
8:53 AM,68.0,64.0,87,29.77,10.0,Calm,Calm,-,N/A,,Overcast,0,2013-06-30 13:53:00
9:53 AM,71.1,63.0,75,29.78,10.0,Variable,4.6,-,N/A,,Overcast,0,2013-06-30 14:53:00
10:00 AM,71.6,64.4,78,29.78,10.0,Calm,Calm,-,N/A,,Overcast,0,2013-06-30 15:00:00
10:08 AM,73.4,64.4,73,29.78,10.0,Variable,3.5,-,N/A,,Mostly Cloudy,0,2013-06-30 15:08:00
10:16 AM,73.4,64.4,73,29.78,10.0,NNE,5.8,-,N/A,,Mostly Cloudy,30,2013-06-30 15:16:00
10:53 AM,70.0,64.0,81,29.78,10.0,NW,6.9,-,0.00,Rain,Light Rain,310,2013-06-30 15:53:00
11:53 AM,69.1,64.0,84,29.79,10.0,NNW,10.4,-,0.00,,Overcast,340,2013-06-30 16:53:00
12:12 PM,68.0,64.4,88,29.79,6.0,NNW,5.8,-,0.00,Rain,Light Rain,330,2013-06-30 17:12:00
12:53 PM,72.0,66.0,81,29.78,10.0,NNW,8.1,-,0.00,,Overcast,340,2013-06-30 17:53:00
1:53 PM,73.0,64.9,76,29.78,6.0,NNE,4.6,-,0.00,Rain,Light Rain,20,2013-06-30 18:53:00
2:53 PM,69.1,64.9,87,29.78,9.0,ESE,8.1,-,0.02,,Overcast,110,2013-06-30 19:53:00
2:57 PM,69.8,66.2,88,29.78,7.0,ESE,3.5,-,0.00,Rain-Thunderstorm,Light Thunderstorms and Rain,120,2013-06-30 19:57:00
3:29 PM,69.8,66.2,88,29.79,2.5,North,3.5,-,0.01,Rain,Rain,360,2013-06-30 20:29:00
3:36 PM,68.0,64.4,88,29.79,0.8,North,3.5,-,0.11,Rain,Rain,360,2013-06-30 20:36:00
3:53 PM,68.0,64.9,90,29.78,1.0,Calm,Calm,-,0.44,Rain,Rain,0,2013-06-30 20:53:00
4:12 PM,68.0,66.2,94,29.78,2.5,SSE,3.5,-,0.07,Rain,Rain,160,2013-06-30 21:12:00
4:22 PM,68.0,66.2,94,29.79,5.0,Calm,Calm,-,0.08,Rain,Light Rain,0,2013-06-30 21:22:00
4:33 PM,68.0,66.2,94,29.79,1.8,NW,5.8,-,0.11,Rain,Heavy Rain,310,2013-06-30 21:33:00
4:53 PM,68.0,66.0,93,29.78,3.0,SW,4.6,-,0.19,Rain,Light Rain,230,2013-06-30 21:53:00
5:17 PM,69.8,66.2,88,29.78,10.0,Calm,Calm,-,0.00,Thunderstorm,Thunderstorm,0,2013-06-30 22:17:00
5:30 PM,69.8,66.2,88,29.79,9.0,ENE,12.7,18.4,0.00,Rain-Thunderstorm,Thunderstorms and Rain,70,2013-06-30 22:30:00
5:53 PM,68.0,64.0,87,29.79,6.0,North,9.2,-,0.00,Rain-Thunderstorm,Thunderstorms and Rain,10,2013-06-30 22:53:00
6:49 PM,68.0,64.4,88,29.80,10.0,North,5.8,-,0.13,,Overcast,360,2013-06-30 23:49:00
6:53 PM,68.0,64.9,90,29.79,10.0,North,5.8,-,0.13,,Overcast,350,2013-06-30 23:53:00
7:53 PM,68.0,66.0,93,29.79,10.0,Calm,Calm,-,N/A,,Partly Cloudy,0,2013-07-01 00:53:00
8:53 PM,66.9,64.0,90,29.80,10.0,North,4.6,-,N/A,,Scattered Clouds,350,2013-07-01 01:53:00
9:53 PM,66.9,64.0,90,29.82,10.0,Calm,Calm,-,N/A,,Scattered Clouds,0,2013-07-01 02:53:00
10:53 PM,66.9,64.9,93,29.83,10.0,Calm,Calm,-,N/A,,Clear,0,2013-07-01 03:53:00
11:53 PM,66.0,64.0,93,29.82,5.0,WSW,4.6,-,N/A,,Scattered Clouds,250,2013-07-01 04:53:00